This is the latest recevied weather packets stored in our database for station/object W5CDN. If no packets are shown the sender has not sent any weather packets the latest 10 day(s).
| Time | Temp. | Humidity | Pressure | Rain* | Wind** | Luminosity | Snow |
|---|---|---|---|---|---|---|---|
| 1788129536 | 37.22° C | 37% | 1011.6 hPa | 0 mm | - | - | - |
| 1788129236 | 37.22° C | 37% | 1011.6 hPa | 0 mm | - | - | - |
| 1788128936 | 37.22° C | 38% | 1011.6 hPa | 0 mm | - | - | - |
| 1788128636 | 37.22° C | 38% | 1011.7 hPa | 0 mm | - | - | - |
| 1788128336 | 37.78° C | 38% | 1011.9 hPa | 0 mm | - | - | - |
| 1788128036 | 37.22° C | 38% | 1011.6 hPa | 0 mm | - | - | - |
| 1788127736 | 36.67° C | 39% | 1011.9 hPa | 0 mm | - | - | - |
| 1788127436 | 37.78° C | 39% | 1011.9 hPa | 0 mm | - | - | - |
| 1788127136 | 37.78° C | 38% | 1011.9 hPa | 0 mm | - | - | - |
| 1788126836 | 37.22° C | 38% | 1011.9 hPa | 0 mm | - | - | - |
| 1788126536 | 37.78° C | 37% | 1012 hPa | 0 mm | - | - | - |
| 1788126236 | 37.22° C | 38% | 1011.9 hPa | 0 mm | - | - | - |
| 1788125936 | 36.67° C | 39% | 1012.2 hPa | 0 mm | - | - | - |
| 1788125636 | 36.11° C | 40% | 1012.2 hPa | 0 mm | - | - | - |
| 1788125336 | 35.56° C | 40% | 1012.3 hPa | 0 mm | - | - | - |
| 1788125036 | 37.22° C | 40% | 1012.4 hPa | 0 mm | - | - | - |
| 1788124736 | 37.78° C | 39% | 1012.4 hPa | 0 mm | - | - | - |
| 1788124436 | 37.22° C | 40% | 1012.4 hPa | 0 mm | - | - | - |
| 1788124136 | 37.22° C | 39% | 1012.3 hPa | 0 mm | - | - | - |
| 1788123836 | 37.22° C | 39% | 1012.3 hPa | 0 mm | - | - | - |
| 1788123536 | 38.89° C | 38% | 1012.5 hPa | 0 mm | - | - | - |
| 1788123236 | 38.33° C | 37% | 1012.4 hPa | 0 mm | - | - | - |
| 1788122936 | 37.78° C | 38% | 1012.7 hPa | 0 mm | - | - | - |
| 1788122636 | 37.22° C | 38% | 1012.7 hPa | 0 mm | - | - | - |
| 1788122336 | 37.22° C | 39% | 1012.8 hPa | 0 mm | - | - | - |
* Rain latest hour (hover to see other rain measurements)
** Current wind speed in m/s (hover to see current wind gust speed)